Other Surface Observations
Issued by NWS Upton, NY

Home | Current Version | Previous Version | Text Only | Print | Product List | Glossary On
Versions: 1 2 3 4 5 6 7 8 9 10 11 12 13 14 15 16 17 18 19 20 21 22 23 24 25 26 27 28 29 30 31 32 33 34 35 36 37 38 39 40 41 42 43 44 45 46 47 48 49 50
000
SXUS51 KOKX 210057
OSOOKX
New York City Metropolitan Area Weather Roundup
National Weather Service New York NY
800 PM EST SAT JAN 20 2018

CITY           SKY/WX    TMP DP  RH WIND       PRES   REMARKS
Central Park   FAIR      46  27  47 W8        30.02R
LaGuardia Arpt MOCLDY    48  27  44 W13       30.00R
Kennedy Intl   FAIR      46  29  51 W10       30.02R
Newark Liberty MOCLDY    45  28  51 W7        30.01R
Teterboro Arpt FAIR      41  27  57 SW6       30.00R
Bronx Bot Gard   N/A     46  27  46 SW14      29.99R
Bronx Lehman C   N/A     46  28  49 W10         N/A
Queens College   N/A     46  30  53 W7          N/A
Breezy Point     N/A     43 N/A N/A W12         N/A
Brooklyn Coll    N/A     46  30  53 W10         N/A
Staten Island    N/A     45  30  57 W6          N/A

>>>>>>>>>>>>>>>>>>>>>>>>>>>>>>>>> KEY <<<<<<<<<<<<<<<<<<<<<<<<<<<<<<<
> SKY/WX - Sky Condition/Present    : R : WCI - Wind Chill Index    <
>          Weather                  : E : VSB - Visibility in Miles <
> TMP    - Temperature in Deg F     : M : HX  - Heat Index          <
> DP     - Dew Point Temperature    : A : TC  - Temperature in      <
> RH     - Relative Humidity        : R :       Celsius             <
> WIND   - Direction/Speed (mph)    : K : VRB - Variable Wind Dir   <
> PRES   - Pressure (in Hg)         : S :                           <
>>>>>>>>>>>>>>>>>>>>>>>>>>>>>>>>> KEY <<<<<<<<<<<<<<<<<<<<<<<<<<<<<<<



USA.gov is the U.S. government's official web portal to all federal, state and local government web resources and services.